RH
27 28 29 25 25 25 26 26 27 28 28 31 34 40 47 57 66 68 68 67 67 66 62 60 63 61 64 60 60 67 71 73 61 52 57 62 80 88 76 67 60 59 51
25 24 25 23 23 26 29 28 28 31 30 31 35 40 47 56 68 69 69 70 69 67 64 64 62 64 69 77 69 65 71 73 71 65 66 73 92 95 83 77 67 63 55
25 24 25 25 25 25 28 30 30 31 31 33 36 40 46 53 64 72 71 72 73 70 68 68 67 64 67 71 78 72 71 84 72 77 66 75 72 81 88 87 80 68 62
26 26 26 25 24 24 27 31 31 32 32 34 37 41 47 50 57 72 75 74 75 75 76 74 75 74 73 73 77 79 74 75 79 83 84 72 75 79 93 92 89 79 71
25 23 22 24 21 24 26 32 33 32 33 35 38 41 46 47 51 64 81 80 79 79 80 83 85 86 82 78 78 78 80 79 82 85 86 86 82 79 92 89 90 88 77
23 23 24 23 27 30 32 34 37 35 34 34 35 38 42 46 50 52 71 87 83 87 92 95 98 94 91 87 83 80 74 79 78 76 76 85 90 95 91 86 90 95 92
23 22 22 23 25 26 27 29 32 36 37 36 33 33 33 37 42 47 50 77 85 88 95 97 96 94 93 90 89 91 80 68 65 68 74 71 85 94 87 98 94 92 92
18 19 21 20 21 23 23 23 24 26 28 29 31 32 32 28 31 35 41 51 73 80 87 92 94 93 96 97 89 92 87 75 84 71 71 76 73 85 84 93 93 95 91
18 18 19 18 21 21 20 19 17 17 18 18 18 20 18 15 14 16 21 31 39 59 71 81 85 86 90 89 95 98 94 80 84 90 95 81 83 97 94 98 99 91 93
14 15 17 17 18 19 20 19 19 17 17 17 16 17 13 13 10 10 10 10 13 18 35 46 65 77 79 85 87 86 83 82 89 97 93 84 77 89 97 98 97 98 98
14 15 15 16 16 17 18 19 21 20 19 18 19 20 17 12 11 11 10 10 10 11 12 17 27 35 54 62 69 77 82 84 76 81 86 94 92 80 91 93 91 97 97
15 16 16 17 18 18 19 19 19 22 21 19 19 20 17 16 15 14 14 13 12 12 12 12 12 20 23 30 40 46 60 64 74 80 74 64 71 77 90 91 84 85 93
16 16 17 17 18 19 20 21 22 23 23 25 25 28 25 20 18 18 17 16 16 15 14 13 12 12 13 17 20 28 27 38 41 49 65 69 70 73 74 80 86 92 90
16 17 18 20 21 22 23 23 23 23 24 24 26 24 25 22 21 21 19 19 18 17 17 16 15 14 13 14 14 13 22 22 25 32 39 43 47 60 70 73 74 74 79
18 20 22 23 24 24 24 24 24 24 23 23 23 28 23 23 22 21 21 21 21 21 20 19 19 18 16 15 14 13 14 16 20 25 27 27 28 32 42 51 58 73 79
21 22 23 24 23 23 24 24 24 23 22 22 23 22 23 21 21 22 22 22 22 22 22 21 20 20 18 17 16 15 15 13 13 14 17 18 24 31 32 32 37 46 54
24 24 24 24 23 22 21 20 21 22 22 23 23 22 22 23 23 23 23 24 24 24 24 24 24 24 23 21 19 18 16 14 13 15 15 15 19 21 25 30 31 34 37
27 27 27 26 25 25 24 23 21 20 22 25 23 24 24 24 25 27 28 29 29 28 27 27 26 26 27 28 26 23 20 19 17 16 16 17 19 22 22 23 26 26 28
30 30 30 29 28 26 24 24 23 23 24 26 27 26 25 27 28 29 32 35 37 38 35 35 32 31 30 30 28 25 26 25 21 19 20 20 19 23 24 25 25 26 27
29 29 28 28 28 28 28 28 29 30 30 29 29 26 22 34 40 42 44 42 44 47 45 45 43 41 38 35 32 32 31 30 25 23 24 23 23 27 27 26 27 29 32
28 29 27 26 28 26 27 29 28 28 29 28 29 26 20 29 42 45 48 49 49 51 51 50 49 48 45 39 38 39 38 37 35 32 29 25 25 31 31 30 30 34 34
25 26 25 25 25 27 26 24 24 24 25 27 28 29 22 36 45 49 53 55 56 57 57 55 55 52 48 40 41 42 41 41 38 33 32 30 34 35 34 34 34 36 40
23 23 23 25 25 24 25 26 25 26 29 32 34 33 34 42 53 59 62 63 63 62 62 62 59 54 49 44 43 45 45 42 38 36 35 33 37 38 37 37 36 38 38
22 22 24 26 24 22 24 29 32 33 34 35 36 39 48 60 67 71 72 72 70 68 67 65 60 53 49 48 47 45 45 43 41 40 39 37 41 42 42 41 39 38 38
22 22 21 24 29 31 33 36 38 41 43 45 50 57 68 74 77 78 78 78 76 74 74 69 62 56 53 52 50 49 48 47 46 45 44 43 46 46 47 46 44 40 42
20 22 25 33 36 38 41 43 45 48 52 58 64 74 79 80 81 81 81 80 80 78 73 66 60 57 55 56 57 55 53 53 53 52 51 50 49 48 50 49 50 46 43